GW1213 Weather Reports


time (UTC)temp
C
wind
direction
speed
KPH
gust
KPH
rain 1hr
cm
rain 24hr
cm
rain mn
cm
humidity
%
barometer
mb
20260831231559 28 0 0.0 0.0 0.00 0.00 0.00 82 1017.2
20260831231040 28 0 0.0 0.0 0.00 0.00 0.00 80 1017.2
20260831230537 28 0 0.0 0.0 0.00 0.00 0.00 79 1017.3
20260831230114 28 0 0.0 0.0 0.00 0.00 0.00 80 1017.4
20260831225535 28 0 0.0 0.0 0.00 0.00 0.00 79 1017.3
20260831225040 28 0 0.0 0.0 0.00 0.00 0.00 77 1017.3
20260831224602 28 0 0.0 0.0 0.00 0.00 0.00 78 1017.4
20260831224040 28 0 0.0 0.0 0.00 0.00 0.00 77 1017.4
20260831223540 28 0 0.0 0.0 0.00 0.00 0.00 79 1017.4
20260831223109 28 0 0.0 0.0 0.00 0.00 0.00 81 1017.4
20260831222536 28 0 0.0 0.0 0.00 0.00 0.00 80 1017.3
20260831222038 29 0 0.0 0.0 0.00 0.00 0.00 79 1017.4
20260831221601 29 0 0.0 0.0 0.00 0.00 0.00 77 1017.4
20260831221037 29 0 0.0 0.0 0.00 0.00 0.00 74 1017.4
20260831220536 29 0 0.0 0.0 0.00 0.00 0.00 75 1017.5
20260831220053 29 0 0.0 0.0 0.00 0.00 0.00 75 1017.6
20260831215538 30 0 0.0 0.0 0.00 0.00 0.00 74 1017.6
20260831215036 30 0 0.0 0.0 0.00 0.00 0.00 73 1017.4
20260831214610 30 0 0.0 0.0 0.00 0.00 0.00 71 1017.3
20260831214037 30 0 0.0 0.0 0.00 0.00 0.00 71 1017.3
20260831213534 30 0 0.0 0.0 0.00 0.00 0.00 72 1017.2
20260831213059 30 0 0.0 0.0 0.00 0.00 0.00 71 1017.3
20260831212538 30 0 0.0 0.0 0.00 0.00 0.00 71 1017.3
20260831212036 30 0 0.0 0.0 0.00 0.00 0.00 71 1017.2
20260831211557 30 0 0.0 0.0 0.00 0.00 0.00 70 1017.2
20260831211037 30 0 0.0 1.6 0.00 0.00 0.00 69 1017.2
20260831210537 30 0 0.0 1.6 0.00 0.00 0.00 70 1017.2
20260831210103 31 0 0.0 3.2 0.00 0.00 0.00 68 1017.2
20260831205536 31 0 0.0 3.2 0.00 0.00 0.00 69 1017.2
20260831205036 31 0 0.0 1.6 0.00 0.00 0.00 69 1017.2
20260831204608 31 0 0.0 0.0 0.00 0.00 0.00 69 1017.2
20260831204039 31 0 0.0 0.0 0.00 0.00 0.00 69 1017.2
20260831203537 31 0 0.0 0.0 0.00 0.00 0.00 69 1017.1
20260831203112 31 0 0.0 0.0 0.00 0.00 0.00 70 1017.2
20260831202534 31 0 0.0 1.6 0.00 0.00 0.00 68 1017.2
20260831202037 30 0 0.0 4.8 0.00 0.00 0.00 68 1017.3
20260831201554 30 0 0.0 4.8 0.00 0.00 0.00 69 1017.3
20260831201037 30 62 0.0 4.8 0.00 0.00 0.00 69 1017.3
20260831200534 30 0 0.0 6.4 0.00 0.00 0.00 70 1017.3
20260831200110 30 85 1.6 6.4 0.00 0.00 0.00 68 1017.3
20260831195535 30 39 1.6 6.4 0.00 0.00 0.00 71 1017.3
20260831195038 30 32 1.6 6.4 0.00 0.00 0.00 72 1017.4
20260831194637 30 28 1.6 4.8 0.00 0.00 0.00 71 1017.3
20260831194037 30 41 0.0 4.8 0.00 0.00 0.00 71 1017.4
20260831193538 30 0 0.0 12.9 0.00 0.00 0.00 70 1017.4
20260831193100 30 59 3.2 12.9 0.00 0.00 0.00 70 1017.5
20260831192538 30 0 0.0 0.0 0.00 0.00 0.00 71 1017.5
20260831192036 30 0 0.0 0.0 0.00 0.00 0.00 70 1017.6
20260831191602 30 0 0.0 0.0 0.00 0.00 0.00 71 1017.6
20260831191040 30 0 0.0 0.0 0.00 0.00 0.00 71 1017.7
20260831190537 30 0 0.0 3.2 0.00 0.00 0.00 72 1017.7
20260831190109 30 0 0.0 4.8 0.00 0.00 0.00 69 1017.7
20260831185535 30 360 1.6 4.8 0.00 0.00 0.00 71 1017.7
20260831185035 30 0 0.0 8.0 0.00 0.00 0.00 70 1017.7
20260831184601 30 38 3.2 11.3 0.00 0.00 0.00 69 1017.6
20260831184035 30 76 4.8 11.3 0.00 0.00 0.00 69 1017.6
20260831183536 30 0 0.0 8.0 0.00 0.00 0.00 67 1017.6
20260831183106 30 48 3.2 8.0 0.00 0.00 0.00 68 1017.6
20260831182536 31 0 1.6 8.0 0.00 0.00 0.00 66 1017.6
20260831182036 31 71 4.8 8.0 0.00 0.00 0.00 63 1017.7
20260831181607 31 0 0.0 6.4 0.00 0.00 0.00 63 1017.8
20260831181037 31 0 1.6 6.4 0.00 0.00 0.00 64 1017.8
20260831180536 31 0 0.0 4.8 0.00 0.00 0.00 66 1017.9
20260831180114 31 0 0.0 6.4 0.00 0.00 0.00 65 1017.9
20260831175537 31 127 1.6 6.4 0.00 0.00 0.00 64 1017.8
20260831175037 31 127 1.6 4.8 0.00 0.00 0.00 65 1018.0
20260831174603 31 0 1.6 4.8 0.00 0.00 0.00 65 1018.0
20260831174036 31 332 0.0 3.2 0.00 0.00 0.00 66 1018.0
20260831173541 31 0 0.0 4.8 0.00 0.00 0.00 68 1018.1
20260831173059 31 0 0.0 8.0 0.00 0.00 0.00 68 1018.1
20260831172536 30 72 0.0 8.0 0.00 0.00 0.00 70 1018.1
20260831172037 30 98 1.6 8.0 0.00 0.00 0.00 70 1018.2
20260831171600 30 38 0.0 4.8 0.00 0.00 0.00 70 1018.3
20260831171036 30 49 0.0 6.4 0.00 0.00 0.00 68 1018.4
20260831170536 30 0 0.0 6.4 0.00 0.00 0.00 69 1018.5
20260831170104 30 72 1.6 6.4 0.00 0.00 0.00 67 1018.5
20260831165537 31 80 1.6 6.4 0.00 0.00 0.00 67 1018.5
20260831165037 31 39 1.6 4.8 0.00 0.00 0.00 69 1018.6
20260831164600 31 40 1.6 4.8 0.00 0.00 0.00 67 1018.7
20260831164035 31 84 0.0 1.6 0.00 0.00 0.00 67 1018.7
20260831163537 31 0 0.0 6.4 0.00 0.00 0.00 66 1018.7
20260831163102 31 0 0.0 8.0 0.00 0.00 0.00 68 1018.8
20260831162537 31 62 0.0 8.0 0.00 0.00 0.00 67 1018.8
20260831162034 30 0 0.0 3.2 0.00 0.00 0.00 68 1018.8
20260831161606 30 0 1.6 4.8 0.00 0.00 0.00 68 1018.7
20260831161037 30 335 1.6 4.8 0.00 0.00 0.00 68 1018.7
20260831160538 30 0 0.0 4.8 0.00 0.00 0.00 70 1018.8
20260831155537 30 287 0.0 3.2 0.00 0.00 0.00 71 1018.7
20260831155035 30 345 1.6 4.8 0.00 0.00 0.00 70 1018.7
20260831154617 30 347 0.0 4.8 0.00 0.00 0.00 70 1018.7
20260831154038 30 0 0.0 4.8 0.00 0.00 0.00 71 1018.9
20260831153540 30 0 0.0 6.4 0.00 0.00 0.00 72 1018.8
20260831153059 29 254 1.6 6.4 0.00 0.00 0.00 73 1018.7
20260831152538 28 0 1.6 4.8 0.00 0.00 0.00 73 1018.8
20260831152034 28 0 0.0 3.2 0.00 0.00 0.00 74 1018.7
20260831151617 28 360 1.6 3.2 0.00 0.00 0.00 73 1018.7
20260831151038 28 0 1.6 3.2 0.00 0.00 0.00 74 1018.6
20260831150540 28 32 1.6 4.8 0.00 0.00 0.00 75 1018.7
20260831150100 28 73 0.0 11.3 0.00 0.00 0.00 74 1018.6
20260831145538 28 38 4.8 11.3 0.00 0.00 0.00 75 1018.5
20260831145037 28 28 1.6 4.8 0.00 0.00 0.00 77 1018.5
20260831144601 28 352 0.0 8.0 0.00 0.00 0.00 75 1018.6
20260831144037 28 0 1.6 8.0 0.00 0.00 0.00 76 1018.6
20260831143536 28 67 1.6 8.0 0.00 0.00 0.00 76 1018.5
20260831143055 28 0 0.0 4.8 0.00 0.00 0.00 76 1018.6
20260831142536 27 0 0.0 4.8 0.00 0.00 0.00 77 1018.7
20260831142037 28 351 1.6 4.8 0.00 0.00 0.00 76 1018.7
20260831141557 28 0 0.0 0.0 0.00 0.00 0.00 76 1018.5
20260831141040 27 0 0.0 0.0 0.00 0.00 0.00 77 1018.6
20260831140535 27 0 0.0 0.0 0.00 0.00 0.00 77 1018.4
20260831140059 27 0 0.0 0.0 0.00 0.00 0.00 77 1018.4
20260831135537 27 0 0.0 0.0 0.00 0.00 0.00 78 1018.4
20260831135039 27 0 0.0 0.0 0.00 0.00 0.00 79 1018.5
20260831134602 27 0 0.0 0.0 0.00 0.00 0.00 79 1018.5
20260831134035 27 0 0.0 0.0 0.00 0.00 0.00 79 1018.6
20260831133537 26 0 0.0 0.0 0.00 0.00 0.00 80 1018.7
20260831133103 26 0 0.0 0.0 0.00 0.00 0.00 81 1018.7
20260831132537 26 0 0.0 0.0 0.00 0.00 0.00 83 1018.7
20260831132035 25 0 0.0 0.0 0.00 0.00 0.00 84 1018.8
20260831131615 25 0 0.0 0.0 0.00 0.00 0.00 85 1018.8
20260831131036 25 0 0.0 0.0 0.00 0.00 0.00 86 1018.8
20260831130537 25 0 0.0 0.0 0.00 0.00 0.00 85 1019.0
20260831130112 25 0 0.0 0.0 0.00 0.00 0.00 86 1018.9
20260831125538 25 0 0.0 0.0 0.00 0.00 0.00 87 1018.9
20260831125036 25 0 0.0 0.0 0.00 0.00 0.00 88 1018.9
20260831124610 24 0 0.0 0.0 0.00 0.00 0.00 90 1018.9
20260831124037 24 0 0.0 0.0 0.00 0.00 0.00 90 1018.9
20260831123535 23 0 0.0 0.0 0.00 0.00 0.00 92 1018.9
20260831123100 23 0 0.0 0.0 0.00 0.00 0.00 93 1018.9
20260831122536 23 0 0.0 0.0 0.00 0.00 0.00 94 1018.8
20260831122037 23 0 0.0 0.0 0.00 0.00 0.00 94 1018.8
20260831121601 22 0 0.0 0.0 0.00 0.00 0.00 94 1018.7
20260831121037 22 0 0.0 3.2 0.00 0.00 0.00 95 1018.7
20260831120537 22 0 0.0 3.2 0.00 0.00 0.00 95 1018.6
20260831120109 22 0 0.0 1.6 0.00 0.00 0.00 96 1018.5
20260831115537 22 0 0.0 1.6 0.00 0.00 0.00 96 1018.5
20260831115036 22 0 0.0 0.0 0.00 0.00 0.00 97 1018.6
20260831114601 22 0 0.0 0.0 0.00 0.00 0.00 97 1018.6
20260831114037 22 0 0.0 0.0 0.00 0.00 0.00 98 1018.6
20260831113535 22 0 0.0 0.0 0.00 0.00 0.00 98 1018.6
20260831113107 21 0 0.0 0.0 0.00 0.00 0.00 97 1018.4
20260831112538 21 0 0.0 0.0 0.00 0.00 0.00 97 1018.4
20260831112043 21 0 0.0 0.0 0.00 0.00 0.00 97 1018.3
20260831111554 21 0 0.0 0.0 0.00 0.00 0.00 97 1018.1
20260831111036 21 0 0.0 0.0 0.00 0.00 0.00 96 1018.2
20260831110536 21 0 0.0 0.0 0.00 0.00 0.00 96 1018.2
20260831110107 21 0 0.0 0.0 0.00 0.00 0.00 96 1018.2
20260831105538 21 0 0.0 0.0 0.00 0.00 0.00 96 1018.1
20260831105038 21 0 0.0 0.0 0.00 0.00 0.00 96 1017.9
20260831104611 21 0 0.0 0.0 0.00 0.00 0.00 96 1017.8
20260831104038 21 0 0.0 0.0 0.00 0.00 0.00 96 1017.7
20260831103537 21 0 0.0 0.0 0.00 0.00 0.00 96 1017.7
20260831103059 21 0 0.0 0.0 0.00 0.00 0.00 97 1017.7
20260831102537 21 0 0.0 0.0 0.00 0.00 0.00 96 1017.6
20260831102036 21 0 0.0 0.0 0.00 0.00 0.00 96 1017.5
20260831101607 21 0 0.0 0.0 0.00 0.00 0.00 96 1017.5
20260831101036 21 0 0.0 0.0 0.00 0.00 0.00 96 1017.6
20260831100535 21 0 0.0 0.0 0.00 0.00 0.00 96 1017.6
20260831100127 21 0 0.0 0.0 0.00 0.00 0.00 96 1017.6
20260831095535 21 0 0.0 0.0 0.00 0.00 0.00 96 1017.6
20260831095035 21 0 0.0 0.0 0.00 0.00 0.00 96 1017.6
20260831094559 21 0 0.0 0.0 0.00 0.00 0.00 96 1017.7
20260831094035 21 0 0.0 0.0 0.00 0.00 0.00 96 1017.7
20260831093536 21 0 0.0 0.0 0.00 0.00 0.00 96 1017.7
20260831093108 21 0 0.0 0.0 0.00 0.00 0.00 96 1017.6
20260831092536 21 0 0.0 0.0 0.00 0.00 0.00 96 1017.6
20260831092036 21 0 0.0 0.0 0.00 0.00 0.00 96 1017.6
20260831091603 21 0 0.0 0.0 0.00 0.00 0.00 96 1017.6
20260831091036 21 0 0.0 0.0 0.00 0.00 0.00 96 1017.5
20260831090538 21 0 0.0 0.0 0.00 0.00 0.00 96 1017.6
20260831090107 21 0 0.0 0.0 0.00 0.00 0.00 96 1017.6
20260831085538 21 0 0.0 0.0 0.00 0.00 0.00 96 1017.6
20260831085039 21 0 0.0 0.0 0.00 0.00 0.00 95 1017.7
20260831084610 21 0 0.0 0.0 0.00 0.00 0.00 96 1017.6
20260831084038 21 0 0.0 0.0 0.00 0.00 0.00 95 1017.6
20260831083541 21 0 0.0 0.0 0.00 0.00 0.00 95 1017.6
20260831083102 21 0 0.0 0.0 0.00 0.00 0.00 95 1017.5
20260831082536 21 0 0.0 0.0 0.00 0.00 0.00 95 1017.4
20260831082039 21 0 0.0 0.0 0.00 0.00 0.00 95 1017.5
20260831081606 21 0 0.0 0.0 0.00 0.00 0.00 95 1017.4
20260831081036 21 0 0.0 0.0 0.00 0.00 0.00 95 1017.5
20260831080535 21 0 0.0 0.0 0.00 0.00 0.00 95 1017.4
20260831080108 21 0 0.0 0.0 0.00 0.00 0.00 95 1017.4
20260831075537 22 0 0.0 0.0 0.00 0.00 0.00 95 1017.3
20260831075034 22 0 0.0 0.0 0.00 0.00 0.00 95 1017.4
20260831074601 22 0 0.0 0.0 0.00 0.00 0.00 95 1017.5
20260831074036 22 0 0.0 0.0 0.00 0.00 0.00 95 1017.5
20260831073540 22 0 0.0 0.0 0.00 0.00 0.00 95 1017.5
20260831073105 22 0 0.0 0.0 0.00 0.00 0.00 95 1017.4
20260831072537 22 0 0.0 0.0 0.00 0.00 0.00 95 1017.3
20260831072038 22 0 0.0 0.0 0.00 0.00 0.00 95 1017.3
20260831071558 22 0 0.0 0.0 0.00 0.00 0.00 95 1017.3
20260831071037 22 0 0.0 0.0 0.00 0.00 0.00 95 1017.3
20260831070535 22 0 0.0 0.0 0.00 0.00 0.00 95 1017.3
20260831070115 22 0 0.0 0.0 0.00 0.00 0.00 95 1017.2
20260831065540 22 0 0.0 0.0 0.00 0.00 0.00 95 1017.3
20260831065039 22 0 0.0 0.0 0.00 0.00 0.00 95 1017.4
20260831064556 22 0 0.0 0.0 0.00 0.00 0.00 95 1017.5
20260831064037 22 0 0.0 0.0 0.00 0.00 0.00 95 1017.3
20260831063539 22 0 0.0 0.0 0.00 0.00 0.00 95 1017.3
20260831063101 22 0 0.0 0.0 0.00 0.00 0.00 95 1017.4
20260831062537 22 0 0.0 0.0 0.00 0.00 0.00 95 1017.4
20260831062037 22 0 0.0 0.0 0.00 0.00 0.00 95 1017.5
20260831061601 22 0 0.0 0.0 0.00 0.00 0.00 94 1017.5
20260831061036 22 0 0.0 0.0 0.00 0.00 0.00 94 1017.6
20260831060536 22 0 0.0 0.0 0.00 0.00 0.00 94 1017.6
20260831055537 22 0 0.0 0.0 0.00 0.00 0.00 94 1017.6
20260831055036 22 0 0.0 0.0 0.00 0.00 0.00 94 1017.6
20260831054602 22 0 0.0 0.0 0.00 0.00 0.00 94 1017.7
20260831054037 22 0 0.0 0.0 0.00 0.00 0.00 94 1017.8
20260831053540 22 0 0.0 0.0 0.00 0.00 0.00 94 1017.7
20260831053104 22 0 0.0 0.0 0.00 0.00 0.00 93 1017.8
20260831052538 23 0 0.0 0.0 0.00 0.00 0.00 93 1017.8
20260831052037 23 0 0.0 0.0 0.00 0.00 0.00 93 1017.9
20260831051558 23 0 0.0 0.0 0.00 0.00 0.00 93 1018.0
20260831051037 23 0 0.0 0.0 0.00 0.00 0.00 93 1018.0
20260831050536 23 0 0.0 0.0 0.00 0.00 0.00 93 1018.0
20260831050107 23 0 0.0 0.0 0.00 0.00 0.00 93 1018.0
20260831045536 23 0 0.0 0.0 0.00 0.00 0.00 93 1018.1
20260831045037 23 0 0.0 0.0 0.00 0.00 0.00 93 1018.0
20260831044610 23 0 0.0 0.0 0.00 0.00 0.00 92 1018.0
20260831044037 23 0 0.0 0.0 0.00 0.00 0.00 93 1017.8
20260831043536 23 0 0.0 0.0 0.00 0.00 0.00 92 1017.9
20260831043101 23 0 0.0 0.0 0.00 0.00 0.00 92 1017.8
20260831042540 23 0 0.0 0.0 0.00 0.00 0.00 92 1017.8
20260831042036 23 0 0.0 0.0 0.00 0.00 0.00 92 1017.8
20260831041605 23 0 0.0 0.0 0.00 0.00 0.00 92 1017.9
20260831041040 23 0 0.0 0.0 0.00 0.00 0.00 92 1018.0
20260831040538 23 0 0.0 0.0 0.00 0.00 0.00 92 1018.1
20260831040101 23 0 0.0 0.0 0.00 0.00 0.00 92 1018.1
20260831035541 23 0 0.0 0.0 0.00 0.00 0.00 92 1018.0
20260831035037 23 0 0.0 0.0 0.00 0.00 0.00 92 1018.0
20260831034559 23 0 0.0 0.0 0.00 0.00 0.00 93 1018.1
20260831034037 23 0 0.0 0.0 0.00 0.00 0.00 92 1018.3
20260831033537 23 0 0.0 0.0 0.00 0.00 0.00 92 1018.4
20260831033101 23 0 0.0 0.0 0.00 0.00 0.00 92 1018.6
20260831032537 23 0 0.0 0.0 0.00 0.00 0.00 92 1018.6
20260831032035 23 0 0.0 0.0 0.00 0.00 0.00 92 1018.6
20260831031603 23 0 0.0 0.0 0.00 0.00 0.00 92 1018.7
20260831031037 23 0 0.0 0.0 0.00 0.00 0.00 92 1018.6
20260831030539 23 0 0.0 0.0 0.00 0.00 0.00 92 1018.7
20260831030107 23 0 0.0 0.0 0.00 0.00 0.00 92 1018.8
20260831025537 23 0 0.0 0.0 0.00 0.00 0.00 93 1018.9
20260831025038 23 0 0.0 0.0 0.00 0.00 0.00 92 1018.9
20260831024615 23 0 0.0 0.0 0.00 0.00 0.00 92 1019.0
20260831024037 23 0 0.0 0.0 0.00 0.00 0.00 92 1019.0
20260831023537 23 0 0.0 3.2 0.00 0.00 0.00 92 1018.9
20260831023106 23 0 0.0 3.2 0.00 0.00 0.00 91 1018.9
20260831022536 23 0 0.0 0.0 0.00 0.00 0.00 91 1018.9
20260831022035 23 0 0.0 0.0 0.00 0.00 0.00 91 1018.8
20260831021605 23 0 0.0 0.0 0.00 0.00 0.00 91 1018.8
20260831021040 23 0 0.0 0.0 0.00 0.00 0.00 90 1018.8
20260831020538 23 0 0.0 0.0 0.00 0.00 0.00 90 1018.8
20260831020110 23 0 0.0 0.0 0.00 0.00 0.00 90 1018.8
20260831015537 23 0 0.0 0.0 0.00 0.00 0.00 90 1018.7
20260831015037 23 0 0.0 0.0 0.00 0.00 0.00 90 1018.7
20260831014615 23 0 0.0 0.0 0.00 0.00 0.00 91 1018.8
20260831014037 23 0 0.0 0.0 0.00 0.00 0.00 91 1018.7
20260831013536 23 0 0.0 0.0 0.00 0.00 0.00 90 1018.7
20260831013104 23 0 0.0 0.0 0.00 0.00 0.00 90 1018.8
20260831012535 23 0 0.0 0.0 0.00 0.00 0.00 90 1018.8
20260831012035 23 0 0.0 0.0 0.00 0.00 0.00 89 1018.8
20260831011616 23 0 0.0 0.0 0.00 0.00 0.00 89 1018.7
20260831011037 23 0 0.0 0.0 0.00 0.00 0.00 89 1018.6
20260831010537 23 0 0.0 0.0 0.00 0.00 0.00 89 1018.6
20260831005536 23 0 0.0 0.0 0.00 0.00 0.00 89 1018.5
20260831005037 23 0 0.0 0.0 0.00 0.00 0.00 89 1018.5
20260831004600 23 0 0.0 0.0 0.00 0.00 0.00 89 1018.4
20260831004037 23 0 0.0 0.0 0.00 0.00 0.00 88 1018.2
20260831003537 23 0 0.0 0.0 0.00 0.00 0.00 87 1018.3
20260831003106 23 0 0.0 0.0 0.00 0.00 0.00 87 1018.2
20260831002540 24 0 0.0 0.0 0.00 0.00 0.00 86 1018.1
20260831002038 24 0 0.0 0.0 0.00 0.00 0.00 86 1018.0
20260831001607 24 0 0.0 0.0 0.00 0.00 0.00 84 1017.9
20260831001038 25 0 0.0 0.0 0.00 0.00 0.00 83 1017.8
20260831000538 25 0 0.0 0.0 0.00 0.00 0.00 83 1017.7
20260831000103 25 0 0.0 0.0 0.00 0.00 0.00 82 1017.8
20260830235539 25 0 0.0 0.0 0.00 0.00 0.00 79 1017.9
20260830235038 25 0 0.0 1.6 0.00 0.00 0.00 77 1017.9
20260830234558 25 0 0.0 1.6 0.00 0.00 0.00 78 1017.8
20260830234039 26 0 0.0 1.6 0.00 0.00 0.00 77 1017.9
20260830233537 26 0 0.0 3.2 0.00 0.00 0.00 76 1018.0
20260830233107 26 0 0.0 9.7 0.00 0.00 0.00 74 1018.2
20260830232541 27 279 1.6 9.7 0.00 0.00 0.00 70 1018.5
20260830232038 27 288 3.2 9.7 0.00 0.00 0.00 68 1018.6